Regional Weather Roundup
Issued by NWS

Home | Current Version | Previous Version | Text Only | Print | Product List | Glossary Off
Versions: 1 2 3 4 5 6 7 8 9 10 11 12 13 14 15 16 17 18 19 20 21 22 23 24 25 26 27 28 29 30 31 32 33 34 35 36 37 38 39 40 41 42 43 44 45 46 47 48 49 50

909
ASUS43 KIND 080709
RWRIN

WEATHER ROUNDUP FOR INDIANA
NATIONAL WEATHER SERVICE INDIANAPOLIS IN
200 AM EST MON FEB 08 2016

NOTE: "FAIR" INDICATES FEW OR NO CLOUDS BELOW 12,000 FEET WITH NO
SIGNIFICANT WEATHER AND/OR OBSTRUCTIONS TO VISIBILITY.

* - STATION DOES NOT REPORT WEATHER SUCH AS PRECIPITATION OR FOG.

+ - STATION NOT QUALITY CONTROLLED BY THE NATIONAL WEATHER SERVICE.
    USE DATA WITH CAUTION...ESPECIALLY DEWPOINT AND RELATIVE
    HUMIDITY OBSERVATIONS.

INZ001>003-010>013-019-020-080800-
NORTHWEST INDIANA

CITY           SKY/WX    TMP DP  RH WIND       PRES   REMARKS
GARY /AIRPORT/ CLEAR     33  26  77 CALM      29.69F
LA PORTE +     PTCLDY    32  29  87 W3        29.69F
MICHIGAN CITY+ PTCLDY    32  28  86 SW5       29.69F WCI  27
MONTICELLO +   CLOUDY    34  26  74 W7        29.71F WCI  28
RENSSELAER +   PTCLDY    32  28  86 SW3       29.70F
VALPARAISO     PTCLDY    32  26  78 SW7       29.68F WCI  26

$$

LMZ046-743>745-080800-
SOUTHERN LAKE MICHIGAN

STATION/POSITION TIME  TEMP    WIND        PRES    WAVE
                       AIR SEA DIR/SP/G            HT
                 (UTC) (F)     (DEG/KT/KT) (MB)    (FT)
BURNS HARBOR     0600   36     230/ 10/ 11 1006.8F
MICHIGAN CITY    0600   35     220/ 13/ 14   N/A

$$

INZ004-005-014>016-021>024-080800-
NORTH CENTRAL INDIANA

CITY           SKY/WX    TMP DP  RH WIND       PRES   REMARKS
GOSHEN         CLOUDY    33  28  81 SW7       29.68F WCI  27
LOGANSPORT +   PTCLDY    32  28  86 W3        29.71F
PERU/GRISSOM   CLOUDY    32  30  93 W6        29.68F WCI  27
ROCHESTER +    CLOUDY    36  28  75 W3        29.69F
SOUTH BEND     PTCLDY    26  23  88 SW6       29.68F WCI  19
WARSAW +       MOCLDY    32  30  93 CALM      29.69F

$$

INZ006>009-017-018-025>027-080800-
NORTHEAST INDIANA

CITY           SKY/WX    TMP DP  RH WIND       PRES   REMARKS
ANGOLA *+      CLEAR     32  30  93 CALM      29.67F
AUBURN +       CLOUDY    34  30  86 CALM      29.70F
FORT WAYNE     CLOUDY    33  31  92 SW6       29.70F WCI  28
HUNTINGTON +   CLOUDY    32  28  86 CALM      29.69F

$$

INZ028-029-035-036-043>045-051>053-080800-
WEST CENTRAL INDIANA

CITY           SKY/WX    TMP DP  RH WIND       PRES   REMARKS
GREENCASTLE +  CLOUDY    36  28  75 W3        29.74S
LAFAYETTE      CLOUDY    34  27  75 W8        29.72F WCI  27
TERRE HAUTE    FLURRIES  35  32  88 W15G24    29.77F WCI  25

$$

INZ030>032-037>040-046>048-054>057-064-065-080800-
CENTRAL INDIANA

CITY           SKY/WX    TMP DP  RH WIND       PRES   REMARKS
FISHERS *+     CLOUDY    36  32  87 W3        29.71F
FRANKFORT +    CLOUDY    33  32  94 W7        29.72F WCI  27
GREENWOOD *+   CLOUDY    39  34  81 W5        29.73F
INDIANAPOLIS   CLOUDY    37  30  75 SW8       29.71F
-EAGLE CREEK   CLOUDY    37  31  78 CALM      29.71F
KOKOMO *+        N/A     34  28  80 W7        29.70F WCI  28
MARION +       CLOUDY    32  26  76 SW5       29.71F WCI  28
MT COMFORT *+  CLOUDY    36  30  80 SW5       29.72F
SHELBYVILLE    CLOUDY    36  30  79 SW6       29.72F
ZIONSVILLE +   CLOUDY    33  30  88 W5        29.71F WCI  29

$$

INZ033-034-041-042-049-050-058-059-080800-
EAST CENTRAL INDIANA

CITY           SKY/WX    TMP DP  RH WIND       PRES   REMARKS
MUNCIE         CLOUDY    39  31  72 SW5       29.71F

$$

INZ060-061-067>069-081>083-085>088-080800-
SOUTHWEST INDIANA

CITY           SKY/WX    TMP DP  RH WIND       PRES   REMARKS
EVANSVILLE     CLOUDY    40  33  76 CALM      29.81F
HUNTINGBURG *+ CLOUDY    39  34  81 W13       29.81S
WASHINGTON +   CLOUDY    39  32  75 W9        29.78F

$$

INZ062-063-066-070>080-084-089>092-080800-
SOUTH CENTRAL AND SOUTHEAST INDIANA

CITY           SKY/WX    TMP DP  RH WIND       PRES   REMARKS
BEDFORD +      CLOUDY    41  32  70 W15       29.75F
BLOOMINGTON    CLOUDY    41  31  67 W9        29.74F
MADISON *+     CLOUDY    43  30  61 CALM      29.76F
NORTH VERNON + CLOUDY    41  32  70 CALM      29.75F
SEYMOUR +      CLOUDY    41  32  70 SW5       29.74F

$$





USA.gov is the U.S. government's official web portal to all federal, state and local government web resources and services.